Simultaneous Nadir Overpasses (SNOs) Predictions

Prediction of SNOs between LANDSAT-8 and METOP-A Satellite Orbit:

Table of predicted SNOs for the next 14.0 days since TLE Epoch: 10/23/2021
Index Date (LANDSAT-8) Time (LANDSAT-8) Lat,Lon (LANDSAT-8) SZA (LANDSAT-8 ) Date (METOP-A) Time (METOP-A) Lat,Lon (METOP-A) SZA (METOP-A ) Distance(km) Time Diff (sec)
1 10/24/2021 09:22:58 -81.30, -97.86 84.16 10/24/2021 09:22:33 -81.31, -97.70 84.15 3.09 25
2 10/24/2021 10:12:24 81.31, 69.93 95.88 10/24/2021 10:13:13 81.30, 69.97 95.90 1.16 49
3 10/27/2021 04:57:12 -81.30, -31.32 83.18 10/27/2021 04:56:51 -81.30, -31.16 83.17 2.77 21
4 10/27/2021 05:46:39 81.29, 136.06 96.80 10/27/2021 05:47:32 81.31, 136.13 96.84 2.18 53
5 10/30/2021 00:31:27 -81.31, 35.17 82.24 10/30/2021 00:31:11 -81.31, 34.99 82.26 3.14 16
6 10/30/2021 01:20:54 81.29,-157.48 97.73 10/30/2021 01:21:51 81.30,-157.36 97.78 2.22 57
7 11/01/2021 20:05:42 -81.31, 101.62 81.33 11/01/2021 20:05:30 -81.31, 101.50 81.35 2.11 12
8 11/01/2021 20:55:09 81.29, -91.06 98.64 11/01/2021 20:56:10 81.29, -90.86 98.69 3.33 61
9 11/04/2021 15:39:57 -81.30, 168.02 80.47 11/04/2021 15:39:49 -81.30, 167.98 80.48 0.86 8



Historial Predications of SNOs between LANDSAT-8 and METOP-A
